Location: Prague
(50.0984°N, 14.4360°E)
Time: 19:10:17
(UTC+02:00)

Tiangong 2 - Visible Passes

Search period start: 23 May 2019 00:00
Search period end: 02 June 2019 00:00
Orbit: 379 x 387 km, 42.8° (Epoch: 23 May)

Date Brightness Start Highest point End Pass type
(mag) Time Alt. Az. Time Alt. Az. Time Alt. Az.
23 May 2.6 21:37:02 10° SW 21:39:24 20° S 21:41:45 10° ESE visible
23 May 3.2 23:13:11 10° WSW 23:14:11 15° SW 23:14:11 15° SW visible
24 May 2.5 22:13:13 10° SW 22:15:41 21° S 22:16:55 17° SSE visible
25 May 3.0 22:49:52 10° SW 22:51:42 16° SSW 22:51:42 16° SSW visible
26 May 2.7 21:49:46 10° WSW 21:52:07 19° S 21:54:17 11° SE visible
27 May 3.2 22:26:47 10° SW 22:28:18 13° SSW 22:28:59 12° S visible
